Regional Weather Roundup
Issued by NWS Kansas City/Pleasant Hill, MO

Home | Current Version | Previous Version | Graphics & Text | Print | Product List | Glossary Off
Versions: 1 2 3 4 5 6 7 8 9 10 11 12 13 14 15 16 17 18 19 20 21 22 23 24 25 26 27 28 29 30 31 32 33 34 35 36 37 38 39 40 41 42 43 44 45 46 47 48 49 50

000
ASUS43 KEAX 012010
RWREAX

WEATHER ROUNDUP FOR EASTERN KANSAS AND NORTHWEST MISSOURI
NATIONAL WEATHER SERVICE KANSAS CITY/PLEASANT HILL MO
300 PM CDT WED OCT 01 2014

KSZ040-057-103>105-MOZ028-029-037-043-012100-
...KANSAS CITY METROPOLITAN AREA...

CITY           SKY/WX    TMP DP  RH WIND       PRES   REMARKS
K.C. INTL      PTSUNNY   77  69  76 SE10      29.73F
K.C. DOWNTOWN  PTSUNNY   79  68  69 SE6       29.72F
LEES SUMMIT    CLOUDY    71  68  90 SE5       29.75F
OLATHE - IXD   PTSUNNY   77  68  73 SE7       29.73F
OLATHE - OJC   CLOUDY    76  69  79 S3        29.73F
LAWRENCE       SUNNY     81  66  60 S6        29.70F

$$

MOZ001>008-011>017-020>025-030>033-038>040-044>046-053-054-012100-
...NORTHERN AND CENTRAL MISSOURI...

CITY           SKY/WX    TMP DP  RH WIND       PRES   REMARKS
ST. JOSEPH     PTSUNNY   77  67  71 S7        29.72F
MOSBY          PTCLDY    73  66  78 S6        29.74S
WHITEMAN AFB   TSTM      64  64 100 NE13G22   29.76R FOG
CLINTON        MOSUNNY   84  70  61 S9G17     29.73S
SEDALIA        CLOUDY    76  66  71 NE10      29.71F THUNDER
WARSAW         NOT AVBL
MARSHALL       CLOUDY    70  68  94 SE5       29.81R
CHILLICOTHE      N/A     73  66  78 SE9       29.76F
MOBERLY        CLOUDY    64  61  88 E8        29.81F
KIRKSVILLE     CLOUDY    66  65  96 SE14      29.79F FOG

$$

MOZ041-047>049-056>058-063>065-088>090-097-012100-
...EASTERN AND SOUTHERN MISSOURI...

CITY           SKY/WX    TMP DP  RH WIND       PRES   REMARKS
ST. LOUIS INTL MOSUNNY   88  63  43 S13       29.82F
SPIRIT OF STL  MOSUNNY   86  63  45 SE9       29.79F
COLUMBIA       PTSUNNY   77  65  66 NE9       29.77F
JEFFERSON CITY PTSUNNY   87  64  46 S7        29.75F
ROLLA          MOSUNNY   87  62  43 S20G25    29.78F
LEBANON        SUNNY     86  61  42 S17       29.79F
OSAGE BEACH    MOSUNNY   88  64  45 S15       29.76F
SPRINGFIELD    PTSUNNY   85  66  53 S14       29.78F
BRANSON        PTSUNNY   88  64  45 S10G17    29.83F
NEVADA         MOSUNNY   84  68  58 S18G24    29.72F
JOPLIN         MOSUNNY   86  67  52 S18       29.74F
WEST PLAINS    MOSUNNY   85  65  51 S12       29.85F

$$

IAZ060-094-KSZ022-034>040-054-083-096-NEZ052-066-093-012100-
...KANSAS...SOUTHEAST NEBRASKA AND IOWA...

CITY           SKY/WX    TMP DP  RH WIND       PRES   REMARKS
TOPEKA         PTSUNNY   86  66  51 S9        29.70F
MANHATTAN      MOSUNNY   82  66  58 S6        29.69F
EMPORIA        PTSUNNY   82  68  62 S14       29.70F
CHANUTE        CLOUDY    81  70  69 S7        29.69F
WICHITA        MOSUNNY   89  63  41 SE13G18   29.66F HX  90
OMAHA          PTSUNNY   73  62  68 SE6       29.72F
LINCOLN        PTSUNNY   76  63  64 CALM      29.73F
FALLS CITY     SUNNY     79  64  60 VRB3      29.70F
LAMONI         CLOUDY    66  63  90 VRB7      29.75F
DES MOINES     CLOUDY    70  62  76 S6        29.75F

$$




USA.gov is the U.S. government's official web portal to all federal, state and local government web resources and services.